Location: Plzen
(49.7500°N, 13.3670°E)
Time: 05:31:08
(UTC+02:00)

ISS - Pass Details

Date: 18 May 2021
Orbit: 417 x 422 km, 51.6° (Epoch: 13 June)

Event Time Altitude Azimuth Distance (km) Brightness Sun altitude
Rises 01:17:05 0° 285° (WNW) 2,370 0.2 -20.6°
Reaches altitude 10° 01:19:11 10° 287° (WNW) 1,506 -0.8 -20.6°
Maximum altitude 01:22:34 79° 14° (NNE) 433 -3.7 -20.6°
Enters shadow 01:22:37 79° 31° (NNE) 434 -3.7 -20.6°
